Hourly Data Report for September 28, 2017

All times are specified in Local Standard Time (LST). Add 1 hour to adjust for Daylight Saving Time where and when it is observed.

CHARLOTTETOWN A
PRINCE EDWARD ISLAND

46°17'21.000" N
63°07'09.000" W
48.50 m
8300301
71706
YYG

Download Data

Hourly Data (September 2017)
Hourly Data Report for September 28, 2017
Temp Definition
°C
Dew Point Temp Definition
°C
Rel Hum Definition
%
Wind Dir Definition
10's deg

Wind Spd Definition
km/h
Visibility Definition
km
Stn Press Definition
kPa
Hmdx Definition


Wind Chill Definition


Weather Definition


TIME
00:00 Legend Double Dagger 19.5 18.4 93 20 23 24.1 99.89     LegendNANA
01:00 Legend Double Dagger 19.9 18.9 94 25 11 4.8 99.96     Drizzle,Fog
02:00 Legend Double Dagger 19.9 19.1 95 25 18 12.9 99.90     Cloudy
03:00 Legend Double Dagger 19.5 18.8 96 23 12 12.9 99.82     LegendNANA
04:00 Legend Double Dagger 19.5 18.9 96 24 10 12.9 99.76     Rain Showers
05:00 Legend Double Dagger 19.6 19.1 97 26 5 9.7 99.66     Rain Showers
06:00 Legend Double Dagger 19.2 18.8 97 32 9 8.1 99.62     Rain Showers
07:00 Legend Double Dagger 18.9 18.5 97 35 11 24.1 99.63     LegendNANA
08:00 Legend Double Dagger 18.0 17.1 94 24 5 24.1 99.64     Cloudy
09:00 Legend Double Dagger 18.5 16.8 89 23 10 24.1 99.62     LegendNANA
10:00 Legend Double Dagger 18.6 16.5 87 28 10 24.1 99.60     LegendNANA
11:00 Legend Double Dagger 19.1 16.0 82 29 17 24.1 99.67     Cloudy
12:00 Legend Double Dagger 18.3 12.3 68 33 18 24.1 99.63     LegendNANA
13:00 Legend Double Dagger 19.0 12.5 66 30 7 24.1 99.64     LegendNANA
14:00 Legend Double Dagger 19.6 11.2 58 31 25 24.1 99.58     Mostly Cloudy
15:00 Legend Double Dagger 18.5 11.8 65 33 13 24.1 99.63     LegendNANA
16:00 Legend Double Dagger 17.6 9.8 60 31 16 24.1 99.65     LegendNANA
17:00 Legend Double Dagger 15.9 11.6 75 36 7 24.1 99.69     Mostly Cloudy
18:00 Legend Double Dagger 15.5 11.6 77 34 6 24.1 99.68     LegendNANA
19:00 Legend Double Dagger 13.7 10.6 81 31 9 24.1 99.71     LegendNANA
20:00 Legend Double Dagger 13.9 9.9 76 33 10 24.1 99.76     Mostly Cloudy
21:00 Legend Double Dagger 13.9 7.2 64 32 24 24.1 99.80     LegendNANA
22:00 Legend Double Dagger 13.1 6.4 64 32 22 24.1 99.82     LegendNANA
23:00 Legend Double Dagger 12.1 4.9 61 32 17 24.1 99.80     Mainly Clear

Notes on Data Quality.

Legend

  • E = Estimated
  • M = Missing
  • NA = Not Available
  • ‡ = Partner data that is not subject to review by the National Climate Archives
Date modified: